Satellite: RS-40
Catalog number: 38736
Epoch time:      12252.07391090
Element set:    0047
Inclination:      082.4822 deg
RA of node:       331.0246 deg
Eccentricity:    0.0018049
Arg of perigee:   220.3799 deg
Mean anomaly:     139.5943 deg
Mean motion:   12.42646228 rev/day
Decay rate:        1.0e-07 rev/day^2
Epoch rev:           00520
Checksum:              272

/EX


_______________________________________________
Via the Keps mailing list courtesy of AMSAT-NA
http://amsat.org/mailman/listinfo/keps

--- ViaMAIL!/WC v1.60d
 * Origin: Chowdanet (401-724-4410) telnet://chowdanet.com  (1:323/120)